Location: *
(12.5665°N, 8.3471°E)
Time: 08:50:17
(UTC+00:00)

USA 215 - Pass Details

Date: 23 September 2019
Orbit: 1102 x 1106 km, 123.0° (Epoch: 14 September)

Event Time Altitude Azimuth Distance (km) Brightness Sun altitude
Rises 02:29:44 0° 40° (NE) 3,908 6.7 -41.1°
Reaches altitude 10° 02:32:13 10° 43° (NE) 2,951 6.0 -40.5°
Enters shadow 02:36:19 41° 54° (NE) 1,530 4.2 -39.5°
